Regional Weather Roundup
Issued by NWS

Home | Current Version | Previous Version | Text Only | Print | Product List | Glossary Off
Versions: 1 2 3 4 5 6 7 8 9 10 11 12 13 14 15 16 17 18 19 20 21 22 23 24 25 26 27 28 29 30 31 32 33 34 35 36 37 38 39 40 41 42 43 44 45 46 47 48 49 50

000
ASUS43 KBIS 232010
RWRND

NORTH DAKOTA REGIONAL WEATHER ROUNDUP
NATIONAL WEATHER SERVICE BISMARCK ND
300 PM CDT WED JUL 23 2014

NOTE: "FAIR" INDICATES FEW OR NO CLOUDS BELOW 12,000 FEET WITH NO
SIGNIFICANT WEATHER AND/OR OBSTRUCTIONS TO VISIBILITY.


NDZ001>003-009>011-017-232100-
NORTHWEST NORTH DAKOTA

CITY           SKY/WX    TMP DP  RH WIND       PRES   REMARKS
WILLISTON      MOSUNNY   87  61  41 SE15      30.13F
MINOT          CLOUDY    74  65  73 E16       30.23F
MINOT AFB      PTSUNNY   73  67  80 E17       30.23S
$$

NDZ018>021-031>035-040>046-232100-
SOUTHWEST NORTH DAKOTA

CITY           SKY/WX    TMP DP  RH WIND       PRES   REMARKS
BISMARCK       CLOUDY    80  61  52 SE16      30.23F
DICKINSON      MOSUNNY   82  64  54 SE18      30.16F
GARRISON         N/A     79  66  64 S13       30.21F
HETTINGER ARPT MOSUNNY   82  62  50 SE14G26   30.18F
$$

NDZ004>008-012>016-024-026-027-054-232100-
NORTHEAST NORTH DAKOTA

CITY           SKY/WX    TMP DP  RH WIND       PRES   REMARKS
GRAND FORKS    MOSUNNY   74  59  59 NW8       30.27F
GRND FRKS AFB  SUNNY     73  59  61 N7        30.28F
DEVILS LAKE    CLOUDY    72  55  56 SE6       30.28S
$$

NDZ022-023-025-028>030-036>039-047>053-232100-
SOUTHEAST NORTH DAKOTA

CITY           SKY/WX    TMP DP  RH WIND       PRES   REMARKS
FARGO          MOSUNNY   77  59  53 N9        30.26F
JAMESTOWN      MOSUNNY   77  56  48 S6        30.26F
$$



USA.gov is the U.S. government's official web portal to all federal, state and local government web resources and services.